Location: Bakhuizen
(52.8696°N, 5.4575°E)
Time: 04:34:05
(UTC+00:00)

Terra - Pass Details

Date: 11 May 2021
Orbit: 701 x 703 km, 98.2° (Epoch: 14 June)

Event Time Altitude Azimuth Distance (km) Brightness Sun altitude
Exits shadow 21:32:47 19° 175° (S) 1,624 3.2 -14.3°
Maximum altitude 21:36:08 71° 256° (WSW) 747 2.0 -14.5°
Drops below altitude 10° 21:40:55 10° 342° (NNW) 2,184 5.7 -14.9°
Sets 21:43:12 0° 344° (NNW) 3,107 6.9 -15.0°
